COSMOS 252 DEB *, 3901

Orbit data source: Space-Track

COSMOS 252 DEB *, 3901 is space debris in LEO originally from a launch on Fri, 01 Nov 1968 UTC launched from the Tyuratam Missile And Space Complex (TTMTR). Debris objects in space refer to the collection of defunct objects orbiting the Earth. Examples of debris include non-operational satellites, rocket bodies, and fragments generated from explosions, collisions, or faulty payload assembly.

Loading next visibility...
Identifier
3901, 1968-097BN
Orbit
LEO
Country
Flag of CISCIS
Related business
Manufacturer
Unknown
Mission
Spacecraft
Bus & Motor
Unknown
Mass
Unknown
Launch date (UTC)
1968-11-01 (57 years ago)
Launch vehicle
Unknown
Launch site
Tyuratam Missile And Space Complex (TTMTR)
Object type
Payload
Rocket body
Debris
Shape & HBR
Unknown shape, 0.1 m
Radar Cross Section
Small (<0.1 m²)

Expand to show TLE details & history
Last TLE update: 3 hours ago

TLE from 3 hours ago
0 COSMOS 252 DEB *
1  3901U 68097BN  26122.14936187  .00000772  00000-0  65379-3 0  9994
2  3901  61.2786 282.2254 0808734 226.8168 126.2464 12.95928110671572
Epoch: 2026-05-02T03:35Z
TLE epoch observation values (Epoch: 2026-05-02T03:35:04.865Z)
Latitude
-0.00002°
Longitude
8.38371°
Altitude
1,676.033 km
Speed
6.852 km/s
True Right ascension
18h 48m 54s
True Declination
0° 00' 00"
Sunlit
Object was in daylight at epoch
Visualization orbit readout
Latitude
Unknown
Longitude
Unknown
Altitude
Unknown
Speed
Unknown
Apparent Right ascension
Unknown
Apparent Declination
Unknown
Sunlit
N/A
Visualization observer readout
Local Sidereal Time
14:39:00
Azimuth
Unknown
Elevation
Unknown
Doppler factor
Unknown
Orbital elements
Apogee altitude
1,896.311 km
Perigee altitude
658.085 km
Semi-major axis
7,655.335 km
Eccentricity
0.08087
Inclination
61.2786°
RAAN
282.2254°
Arg. of periapsis
226.8168°
True anomaly
133.28043°
Mean anomaly
126.2464°
Eccentric anomaly
129.80608°
Mean motion
3.24039 °/min
Orbital period
111.1 mins
BSTAR
0.00065379
Loading maneuver chart data...
Computing Atmospheric mass density...

Documentation

Showing up to 5 results
|